Wind_Speed
93 88 88 89 89 86 83 83 88 89 91 89 86 82 78 83 82 83 78 77 77 76 75 73 72 71 72 74 70 68 59 58 62 65 68 69 63 61 62 62 62 63 62 60 55 52 52
94 93 91 89 87 88 86 86 87 88 89 89 91 87 82 81 86 86 85 85 84 82 79 78 75 71 71 75 70 71 68 66 68 70 72 72 71 71 64 64 63 59 61 59 57 58 55
99 96 95 92 90 89 89 86 89 90 88 89 89 86 88 86 84 86 86 84 83 79 78 76 75 73 75 78 70 73 74 72 73 74 80 80 74 72 63 66 63 62 60 61 65 64 59
101 97 95 95 92 89 90 92 90 90 91 88 88 86 85 82 81 81 81 80 77 75 74 71 71 71 72 70 69 70 72 72 73 79 82 79 77 77 74 68 66 68 66 63 64 63 62
104 105 99 95 100 93 89 93 89 91 91 89 87 86 87 85 81 77 77 77 80 77 70 69 69 69 70 70 71 72 75 77 80 80 82 80 80 78 78 73 71 69 67 64 62 62 60
112 108 106 103 101 97 95 95 96 98 93 92 93 89 86 89 83 80 81 79 78 75 75 72 70 71 72 75 75 76 77 78 82 85 83 82 78 75 78 74 73 69 66 64 59 63 61
119 118 111 105 105 103 99 103 101 100 101 100 97 97 91 88 89 88 89 90 88 79 76 79 76 77 78 80 80 82 83 84 82 83 80 80 77 76 78 73 72 72 67 65 67 66 62
118 117 115 108 109 111 107 105 106 101 105 99 98 96 96 95 95 94 96 94 89 86 89 84 79 80 81 79 81 84 82 82 85 84 82 78 77 80 77 74 72 72 71 69 68 71 70
124 119 117 119 115 116 118 109 104 109 104 102 104 100 100 100 97 98 97 94 93 93 87 87 89 85 86 80 82 87 83 84 81 82 84 82 81 82 81 80 78 76 76 77 75 77 80
133 129 128 130 130 131 126 118 112 106 112 106 106 110 103 97 97 98 100 94 96 96 94 88 88 89 91 87 83 86 83 83 84 87 88 83 84 83 80 80 80 78 83 83 85 85 85
147 143 144 141 139 135 128 122 119 113 113 112 110 111 111 104 100 102 102 100 100 101 98 91 91 92 96 97 92 89 91 90 91 91 87 86 85 83 85 85 85 83 84 86 87 87 87
159 154 149 148 141 137 131 124 121 120 118 116 116 112 113 108 108 108 110 112 110 111 101 100 98 98 101 102 97 93 94 96 96 94 91 90 89 88 90 89 88 87 89 89 89 91 90
162 159 155 150 145 142 137 132 129 128 124 122 123 117 115 114 121 118 119 119 121 111 106 109 106 104 105 101 99 99 98 97 94 94 93 93 92 93 94 93 93 93 94 94 92 93 96
159 155 151 145 146 145 142 139 138 137 135 131 132 126 126 126 131 131 132 129 124 113 115 114 109 104 100 100 102 100 96 94 94 97 96 95 95 96 95 95 94 94 96 98 100 100 98
164 163 160 155 150 143 140 143 142 140 141 140 138 136 132 132 135 134 136 137 122 112 114 111 111 106 102 101 104 102 100 99 98 99 100 99 98 98 99 99 98 97 100 104 107 105 105
141 151 158 159 158 154 150 144 141 143 144 142 141 139 135 136 136 139 141 135 122 115 113 112 112 110 103 101 102 105 102 99 101 103 104 99 98 99 103 103 104 106 107 107 110 112 109
123 129 135 144 153 159 156 150 147 142 143 144 145 143 138 137 139 144 140 128 119 116 117 115 113 112 106 109 109 108 105 104 103 104 106 105 107 106 108 108 111 111 109 109 110 109 108
109 113 122 129 135 147 152 152 153 151 148 143 142 140 137 139 142 141 137 123 124 121 122 119 116 114 113 113 114 114 110 109 108 108 109 111 113 111 112 112 112 114 112 109 107 103 101
100 104 110 117 125 130 134 141 150 153 153 150 147 144 143 147 147 143 138 133 131 128 127 124 121 118 117 117 119 118 117 113 115 114 112 113 116 116 114 114 112 108 104 102 97 95 89
89 93 101 111 114 115 116 120 133 141 148 152 155 152 151 150 149 145 144 138 134 130 129 126 123 123 122 122 122 118 116 118 118 118 117 117 119 116 110 107 103 95 91 88 86 82 79
82 87 95 98 99 97 104 105 111 123 132 143 149 150 149 148 145 142 142 136 132 129 127 128 126 124 124 123 122 120 119 119 120 118 114 112 110 107 101 95 91 84 80 78 73 72 71
74 79 87 87 87 86 91 94 101 111 117 123 128 132 137 139 139 138 135 129 126 123 125 124 124 123 124 124 119 116 116 113 109 107 105 104 103 98 90 84 81 76 70 67 68 67 68
65 71 74 77 79 80 81 86 90 98 105 108 110 111 118 125 129 131 129 128 127 126 120 116 116 118 114 112 113 110 109 104 101 101 99 98 96 90 80 77 77 72 67 71 70 67 66
56 62 67 63 61 60 64 71 81 87 89 93 96 100 103 103 107 115 118 123 124 121 116 117 115 112 111 112 107 104 100 99 97 94 95 92 88 82 74 72 75 69 64 67 63 61 59
54 56 52 50 53 57 61 69 77 81 85 86 88 89 88 88 91 93 98 103 110 107 103 105 108 108 106 103 97 96 94 93 91 93 90 86 78 70 71 67 65 58 60 60 55 51 49
45 46 46 49 54 59 63 66 70 72 75 77 77 77 78 79 78 85 86 87 91 95 95 91 96 90 88 88 89 83 81 81 85 84 85 73 64 63 63 63 55 51 56 52 46 39 48
36 37 40 44 48 50 50 52 56 57 60 64 68 69 67 66 70 72 73 78 82 81 81 80 80 78 76 74 72 70 74 77 74 77 70 66 59 57 52 47 44 50 51 46 39 44 39
32 35 37 40 43 44 44 46 48 51 53 55 59 59 58 58 64 65 66 67 68 66 66 70 68 66 64 63 62 64 67 64 64 64 62 58 54 49 45 41 44 49 43 42 40 36 34
26 29 32 34 37 37 38 39 41 43 45 47 48 50 51 52 54 54 55 55 57 56 58 60 58 57 55 54 55 58 59 55 52 50 49 45 42 42 38 40 42 40 37 35 32 31 31
Wind_Direction
263 263 264 261 261 263 264 265 264 264 261 260 261 263 265 265 263 264 262 264 266 269 270 274 273 274 276 276 273 273 276 278 277 278 285 286 287 289 292 291 286 282 283 281 282 280 282
263 263 264 262 262 265 264 266 267 265 263 262 260 260 264 265 264 264 264 265 269 270 271 271 272 274 275 277 276 275 274 275 276 278 281 283 285 289 292 284 283 283 284 282 279 279 282
263 263 264 263 262 266 264 267 266 265 265 264 264 261 263 265 265 267 267 268 269 270 271 273 273 274 275 277 278 277 274 275 277 279 283 283 284 285 286 286 288 286 286 286 283 282 283
261 262 263 263 265 269 268 268 267 266 267 267 266 261 261 265 265 266 266 268 270 272 273 274 274 273 273 276 277 277 276 276 277 282 282 283 282 284 286 285 285 287 288 290 290 285 281
258 260 262 262 260 265 269 266 268 267 267 269 267 264 266 265 266 265 266 269 270 272 272 273 274 273 273 274 276 278 277 278 280 280 281 282 285 287 285 286 286 286 289 287 285 281 279
259 258 258 260 261 258 267 267 266 267 262 264 264 265 265 264 266 267 267 269 271 272 273 272 272 271 272 274 278 280 279 278 277 278 281 280 283 282 285 287 289 287 285 283 279 275 280
258 257 258 257 259 259 263 267 266 263 263 262 260 263 263 265 264 266 267 265 265 268 270 271 270 271 271 274 275 277 278 279 280 281 282 283 284 283 285 288 287 287 282 283 283 278 274
256 257 257 255 257 257 262 262 263 264 267 263 260 259 261 262 263 265 263 265 265 269 272 274 275 279 275 275 279 278 278 277 280 279 281 283 287 286 287 285 285 285 284 280 279 275 274
257 255 256 257 256 258 263 262 257 259 261 260 260 259 258 257 259 263 262 264 264 268 269 275 274 276 278 275 276 275 275 276 276 277 281 285 286 284 285 286 284 284 283 279 278 277 276
256 255 254 259 259 262 263 259 258 257 257 258 259 262 261 259 262 262 262 264 266 267 270 271 275 278 278 278 276 273 272 273 276 279 282 283 280 284 285 283 283 285 280 279 277 278 278
260 259 259 260 261 261 258 258 256 255 255 254 256 258 260 260 261 262 263 265 266 267 270 269 273 275 275 275 274 272 274 274 275 278 280 279 279 282 282 282 283 282 279 279 281 283 283
258 258 258 258 257 257 256 255 255 255 255 255 257 255 257 258 261 260 263 263 267 268 272 272 273 271 270 272 273 274 274 275 276 278 279 279 278 280 281 281 282 282 281 280 281 283 284
256 254 254 255 256 256 254 251 252 254 254 255 255 255 256 256 260 259 264 265 267 268 273 272 272 269 268 268 269 272 273 274 277 278 277 278 280 281 281 281 282 283 283 282 281 283 285
254 254 253 252 253 251 252 252 251 250 253 252 256 254 256 259 262 264 265 265 266 271 272 270 268 266 266 267 267 269 270 270 273 276 278 278 279 280 281 282 282 282 282 283 283 285 285
251 252 253 252 251 250 251 249 250 251 252 252 254 257 257 259 261 262 263 264 268 269 269 270 268 265 266 267 267 268 269 270 272 275 277 277 278 278 278 281 281 281 283 283 284 284 284
248 249 249 249 251 251 250 250 250 249 251 252 253 254 256 258 260 261 263 265 268 268 267 267 267 266 266 268 268 270 269 271 274 275 277 278 276 277 279 280 282 282 282 284 284 284 285
247 247 247 248 247 247 249 249 250 249 250 251 252 253 255 257 258 260 262 265 265 265 266 266 266 268 269 268 269 271 273 273 274 275 277 278 278 278 279 281 282 285 286 285 284 285 286
247 245 246 245 247 246 245 245 247 249 250 251 251 252 254 256 257 259 261 262 262 262 263 264 265 266 267 268 268 270 273 274 274 276 277 278 279 279 280 282 284 284 286 288 288 287 286
245 245 244 244 245 245 245 244 245 247 250 251 251 252 253 255 257 259 260 261 261 262 263 264 265 266 267 267 268 270 271 273 274 275 277 278 279 279 279 281 281 283 285 286 285 285 287
243 244 242 243 243 244 244 244 244 245 245 248 252 253 252 254 256 258 259 259 260 261 262 263 264 265 265 267 268 269 271 272 274 275 275 277 279 280 280 281 281 282 283 283 282 284 285
243 242 243 244 244 244 245 243 243 245 245 245 247 251 254 256 255 255 257 260 261 262 263 263 264 265 266 267 269 271 272 272 273 277 278 277 278 279 281 283 282 280 282 282 285 284 283
241 241 244 245 245 244 243 244 240 241 242 244 245 246 249 251 254 257 259 261 261 260 260 260 262 262 263 265 269 272 273 274 274 275 277 278 279 279 279 280 280 276 278 279 276 277 277
242 242 242 243 243 241 240 239 239 240 240 241 244 245 246 248 249 252 256 258 260 262 264 266 266 266 267 269 269 271 273 274 275 274 274 274 275 277 279 280 278 276 280 277 275 274 273
240 239 239 241 243 243 241 240 239 240 241 242 243 245 244 246 248 248 250 252 255 259 261 263 265 267 268 268 269 269 270 272 274 274 274 274 274 276 276 275 274 278 277 275 273 271 269
236 238 240 236 233 232 231 231 233 233 235 238 240 242 243 243 246 248 251 252 253 257 259 260 263 264 265 265 267 267 268 269 272 272 271 269 269 271 271 270 270 273 269 268 269 268 267
234 234 232 230 229 230 232 232 234 233 234 236 238 239 240 241 244 245 246 249 252 254 255 257 258 260 260 263 265 266 267 266 267 268 268 270 270 268 265 264 266 264 263 264 264 264 257
232 232 231 231 230 231 233 232 232 233 235 236 236 238 239 241 242 243 245 246 248 250 252 256 258 259 259 260 260 262 261 260 261 265 268 267 269 266 263 263 260 253 255 258 260 250 257
225 223 222 222 222 224 224 224 225 226 227 228 230 232 234 234 237 239 241 244 246 250 252 253 255 257 257 256 258 257 257 258 257 260 262 263 263 263 260 255 246 248 251 254 253 252 247
220 218 215 213 214 217 220 220 220 222 223 224 226 228 229 231 235 237 240 243 244 245 246 248 249 252 253 255 254 253 255 259 257 256 258 259 255 250 249 244 243 247 248 249 245 246 251
Height
10660 10664 10666 10669 10672 10675 10678 10680 10683 10687 10689 10692 10694 10697 10698 10699 10702 10706 10708 10709 10712 10715 10717 10716 10716 10715 10715 10712 10720 10717 10715 10717 10717 10718 10719 10719 10720 10719 10718 10717 10719 10719 10718 10718 10713 10711 10715
10638 10642 10645 10649 10653 10655 10660 10661 10664 10668 10671 10673 10676 10680 10681 10683 10686 10689 10691 10694 10697 10700 10704 10702 10703 10702 10700 10697 10706 10701 10702 10702 10704 10702 10703 10706 10708 10706 10705 10700 10704 10706 10706 10705 10701 10699 10702
10617 10620 10624 10627 10632 10636 10638 10643 10645 10649 10651 10655 10657 10661 10665 10668 10669 10672 10674 10677 10681 10684 10688 10688 10688 10688 10685 10683 10688 10687 10688 10687 10687 10686 10687 10692 10693 10693 10691 10683 10688 10689 10692 10692 10689 10688 10687
10594 10598 10603 10606 10610 10614 10618 10622 10626 10629 10632 10635 10639 10643 10646 10651 10653 10655 10655 10660 10664 10668 10673 10673 10674 10673 10668 10672 10675 10672 10672 10671 10672 10671 10671 10674 10676 10678 10674 10670 10673 10671 10676 10678 10676 10672 10671
10569 10575 10582 10586 10593 10594 10597 10602 10607 10609 10613 10616 10620 10624 10628 10632 10636 10637 10637 10643 10647 10651 10656 10658 10659 10660 10653 10658 10659 10660 10658 10655 10654 10653 10654 10660 10661 10661 10655 10655 10658 10656 10661 10660 10659 10655 10659
10541 10549 10555 10561 10568 10574 10576 10581 10586 10590 10594 10598 10602 10605 10610 10614 10617 10617 10621 10624 10628 10635 10638 10643 10646 10645 10645 10643 10644 10643 10642 10639 10637 10636 10637 10642 10648 10645 10633 10640 10644 10641 10641 10641 10643 10640 10645
10517 10523 10529 10536 10542 10549 10557 10559 10563 10568 10573 10577 10582 10586 10591 10594 10597 10600 10601 10605 10612 10619 10622 10626 10631 10630 10631 10629 10630 10626 10624 10624 10622 10618 10618 10622 10630 10625 10621 10624 10624 10623 10623 10624 10623 10624 10632
10486 10494 10501 10510 10516 10523 10530 10539 10541 10544 10550 10555 10560 10565 10571 10575 10577 10579 10578 10583 10593 10600 10606 10607 10611 10614 10614 10615 10615 10607 10606 10606 10605 10602 10600 10606 10613 10604 10605 10604 10605 10603 10604 10603 10608 10607 10611
10455 10463 10472 10479 10487 10495 10503 10510 10518 10523 10527 10532 10536 10543 10549 10555 10556 10555 10556 10564 10571 10576 10587 10588 10593 10600 10595 10601 10600 10585 10594 10590 10590 10586 10583 10591 10590 10584 10586 10587 10584 10584 10582 10581 10587 10585 10585
10424 10431 10440 10447 10456 10464 10472 10480 10488 10496 10503 10507 10512 10519 10526 10532 10534 10529 10530 10546 10547 10550 10562 10582 10574 10583 10579 10578 10582 10571 10575 10577 10576 10571 10571 10576 10564 10566 10569 10567 10565 10570 10557 10559 10561 10562 10565
10385 10395 10403 10414 10424 10432 10441 10449 10460 10467 10473 10480 10486 10495 10503 10509 10510 10501 10510 10518 10522 10528 10540 10560 10568 10564 10560 10554 10555 10558 10554 10557 10555 10555 10557 10555 10551 10550 10548 10546 10548 10549 10542 10537 10536 10538 10538
10344 10356 10365 10375 10388 10399 10409 10420 10429 10437 10444 10452 10458 10468 10479 10484 10481 10477 10483 10491 10496 10502 10530 10538 10545 10542 10536 10533 10535 10536 10535 10533 10532 10535 10537 10533 10535 10532 10527 10525 10525 10526 10523 10521 10519 10515 10517
10302 10314 10326 10337 10351 10361 10374 10391 10400 10404 10414 10420 10428 10440 10452 10462 10444 10454 10458 10460 10465 10492 10513 10510 10516 10515 10512 10514 10514 10514 10514 10515 10514 10511 10512 10510 10512 10509 10506 10506 10503 10501 10498 10496 10498 10496 10492
10255 10267 10284 10298 10313 10327 10339 10351 10367 10376 10385 10392 10395 10411 10421 10432 10415 10424 10425 10426 10443 10488 10485 10479 10485 10486 10489 10490 10492 10492 10494 10496 10494 10492 10491 10493 10493 10487 10485 10484 10485 10483 10476 10471 10468 10474 10472
10209 10225 10239 10258 10272 10289 10302 10315 10329 10340 10349 10359 10370 10377 10394 10397 10385 10392 10390 10391 10445 10459 10454 10447 10451 10459 10467 10469 10464 10468 10472 10476 10474 10471 10468 10469 10473 10469 10463 10464 10464 10465 10457 10450 10444 10446 10443
10167 10181 10199 10217 10232 10249 10264 10276 10291 10307 10315 10325 10337 10348 10365 10360 10358 10356 10354 10379 10422 10431 10423 10423 10418 10427 10441 10444 10440 10439 10445 10454 10451 10447 10442 10448 10448 10449 10442 10442 10441 10438 10435 10431 10422 10413 10417
10132 10146 10161 10175 10195 10203 10224 10242 10256 10270 10279 10291 10302 10317 10333 10332 10324 10319 10336 10375 10391 10398 10389 10392 10398 10401 10413 10417 10416 10415 10420 10425 10427 10425 10419 10424 10421 10424 10421 10421 10414 10411 10410 10406 10398 10393 10388
10102 10114 10127 10137 10150 10163 10186 10206 10219 10230 10241 10256 10268 10284 10300 10296 10291 10299 10316 10357 10356 10362 10362 10367 10377 10383 10386 10387 10389 10391 10396 10400 10402 10402 10401 10397 10390 10397 10396 10396 10392 10387 10386 10379 10373 10370 10366
10070 10082 10095 10104 10111 10127 10144 10168 10184 10201 10207 10219 10236 10255 10263 10258 10261 10278 10296 10317 10323 10333 10336 10343 10349 10356 10358 10361 10361 10367 10370 10374 10372 10376 10378 10373 10363 10366 10375 10375 10370 10365 10364 10357 10349 10345 10348
10043 10054 10064 10065 10081 10097 10113 10134 10154 10168 10181 10189 10196 10209 10226 10228 10237 10253 10262 10283 10294 10307 10309 10314 10323 10327 10332 10334 10335 10346 10348 10344 10345 10346 10347 10343 10338 10340 10348 10345 10343 10344 10342 10335 10328 10326 10326
10017 10028 10030 10042 10056 10074 10088 10108 10127 10135 10146 10156 10169 10177 10188 10196 10217 10231 10231 10249 10261 10276 10281 10284 10294 10302 10302 10304 10308 10315 10322 10319 10321 10322 10319 10316 10311 10312 10320 10322 10318 10320 10320 10314 10313 10308 10305
9994 10004 10005 10022 10035 10051 10064 10077 10097 10103 10112 10117 10136 10152 10171 10182 10184 10190 10202 10224 10237 10248 10250 10260 10263 10272 10271 10277 10284 10287 10286 10292 10298 10297 10297 10292 10288 10290 10295 10296 10295 10297 10303 10302 10296 10293 10291
9976 9984 9991 10001 10012 10026 10041 10055 10068 10076 10086 10094 10106 10126 10140 10161 10169 10175 10187 10199 10201 10201 10215 10227 10233 10236 10245 10257 10250 10257 10262 10267 10270 10270 10269 10267 10268 10270 10277 10274 10267 10275 10287 10277 10276 10277 10274
9958 9964 9971 9985 9999 10011 10023 10035 10044 10053 10064 10075 10087 10098 10114 10134 10143 10155 10162 10173 10178 10182 10195 10201 10209 10216 10227 10221 10225 10232 10237 10242 10241 10244 10243 10245 10250 10251 10255 10255 10251 10260 10263 10255 10255 10257 10258
9939 9948 9960 9973 9982 9990 9999 10008 10016 10028 10039 10051 10061 10076 10094 10109 10122 10134 10143 10151 10158 10162 10176 10178 10185 10191 10196 10201 10204 10207 10215 10218 10222 10216 10217 10222 10228 10232 10231 10236 10240 10248 10240 10236 10240 10244 10244
9930 9938 9947 9956 9964 9972 9980 9990 10000 10013 10025 10036 10049 10059 10074 10089 10106 10108 10119 10130 10136 10140 10149 10159 10159 10166 10175 10179 10182 10187 10194 10197 10193 10194 10192 10201 10207 10212 10216 10217 10225 10226 10220 10223 10230 10235 10225
9922 9930 9937 9945 9953 9961 9972 9982 9992 10003 10014 10025 10035 10045 10059 10075 10083 10091 10101 10106 10111 10121 10130 10134 10140 10146 10152 10158 10163 10167 10170 10172 10173 10173 10180 10183 10188 10193 10196 10203 10209 10204 10205 10213 10220 10214 10219
9914 9921 9928 9935 9943 9952 9961 9971 9980 9991 10001 10012 10020 10034 10047 10058 10060 10072 10081 10089 10097 10105 10114 10115 10121 10128 10135 10140 10144 10146 10148 10155 10159 10162 10165 10168 10173 10178 10183 10189 10188 10188 10198 10203 10205 10207 10209
9909 9915 9922 9930 9938 9946 9955 9964 9973 9982 9992 10001 10012 10022 10033 10043 10050 10060 10068 10075 10081 10089 10095 10099 10106 10110 10116 10123 10127 10129 10131 10137 10144 10149 10151 10156 10161 10165 10172 10175 10177 10183 10189 10193 10195 10198 10200